Tracking 28790 objects as of 19-Apr-2024
HD Live streaming from Space Station
objects crossing your sky now

ARIANE 5 DEB (SYLDA)

Track ARIANE 5 DEB (SYLDA) now!


NORAD ID: 44037
Int'l Code: 2019-007D
Perigee: 286.7 km
Apogee: 34,417.6 km
Inclination: 2.5 °
Period: 606.1 minutes
Semi major axis: 23723 km
RCS: Unknown
Launch date: February 5, 2019
Source: France (FR)
Launch site: FRENCH GUIANA (FRGUI)

Note: This is SATELLITE DEBRIS
Your satellite tracking list
Your tracking list is empty




NASA's NSSDC Master Catalog

Two Line Element Set (TLE):
1 44037U 19007D   24109.76103210  .00002585  00000-0  13875-2 0  9997
2 44037   2.5094 186.9368 7193584 342.9203   2.0847  2.37598439 43908
Source of the keplerian elements: AFSPC